• In Russia
  • List of Countries
  • For 7 days
  • Water Temperature
  • Satellite Maps
  • Weather Map
  • Weather Widgets
  • user-avatar
    Login

    Hourly Weather Linz

    Today, 21 April, Sunday

    Time Temperature Precipitation Wind Pressure Humidity
    00:00 +10°C° 0 mm 1 mps 739 mmHg 62%
    01:00 +10°C° 0 mm 1 mps 739 mmHg 57%
    02:00 +9°C° 0 mm 1 mps 739 mmHg 58%
    03:00 +9°C° 0 mm 1 mps 739 mmHg 60%
    04:00 +8°C° 0 mm 1 mps 738 mmHg 61%
    05:00 +9°C° 0 mm 1 mps 738 mmHg 61%
    06:00 +10°C° 0 mm 1 mps 738 mmHg 61%
    07:00 +12°C° 0 mm 1 mps 738 mmHg 61%
    08:00 +14°C° 0 mm 1 mps 738 mmHg 55%
    09:00 +16°C° 0 mm 2 mps 737 mmHg 49%
    10:00 +18°C° 0 mm 2 mps 737 mmHg 43%
    11:00 +19°C° 0 mm 3 mps 736 mmHg 41%
    12:00 +20°C° 0 mm 3 mps 736 mmHg 39%
    13:00 +21°C° 0 mm 4 mps 736 mmHg 36%
    14:00 +21°C° 0 mm 4 mps 735 mmHg 39%
    15:00 +21°C° 0 mm 4 mps 735 mmHg 41%
    16:00 +21°C° 0 mm 4 mps 734 mmHg 43%
    17:00 +18°C° 0 mm 4 mps 734 mmHg 50%
    18:00 +15°C° 0 mm 4 mps 734 mmHg 57%
    19:00 +13°C° 0 mm 3 mps 734 mmHg 64%
    20:00 +12°C° 0 mm 3 mps 734 mmHg 63%
    21:00 +11°C° 0 mm 3 mps 734 mmHg 63%
    22:00 +11°C° 0 mm 3 mps 734 mmHg 62%
    23:00 +10°C° 0 mm 2 mps 734 mmHg 65%

    Tomorrow, 22 April, Monday

    Time Temperature Precipitation Wind Pressure Humidity
    00:00 +10°C° 0 mm 2 mps 734 mmHg 67%
    01:00 +9°C° 0 mm 2 mps 733 mmHg 70%
    02:00 +9°C° 0 mm 2 mps 733 mmHg 72%
    03:00 +8°C° 0 mm 2 mps 733 mmHg 74%
    04:00 +8°C° 0 mm 2 mps 732 mmHg 76%
    05:00 +9°C° 0 mm 2 mps 732 mmHg 74%
    06:00 +10°C° 0 mm 2 mps 732 mmHg 72%
    07:00 +12°C° 0 mm 2 mps 731 mmHg 70%
    08:00 +13°C° 0 mm 3 mps 731 mmHg 64%
    09:00 +15°C° 0 mm 4 mps 730 mmHg 59%
    10:00 +18°C° 0 mm 4 mps 730 mmHg 54%
    11:00 +17°C° 0 mm 5 mps 729 mmHg 52%
    12:00 +19°C° 0 mm 5 mps 729 mmHg 50%
    13:00 +20°C° 0 mm 6 mps 728 mmHg 48%
    14:00 +20°C° 0 mm 6 mps 728 mmHg 50%
    15:00 +19°C° 0 mm 6 mps 727 mmHg 51%
    16:00 +18°C° 0 mm 7 mps 727 mmHg 52%
    17:00 +17°C° 0 mm 7 mps 727 mmHg 56%
    18:00 +15°C° 0 mm 7 mps 726 mmHg 60%
    19:00 +14°C° 0 mm 7 mps 726 mmHg 64%
    20:00 +13°C° 0 mm 6 mps 726 mmHg 67%
    21:00 +13°C° 0 mm 6 mps 726 mmHg 69%
    22:00 +11°C° 0 mm 6 mps 726 mmHg 71%
    23:00 +10°C° 0 mm 5 mps 726 mmHg 74%

    Day after tomorrow, 23 April, Tuesday

    Time Temperature Precipitation Wind Pressure Humidity
    00:00 +9°C° 0 mm 5 mps 725 mmHg 77%
    01:00 +10°C° 0 mm 4 mps 725 mmHg 81%
    02:00 +8°C° 0 mm 4 mps 725 mmHg 82%
    03:00 +9°C° 0 mm 3 mps 724 mmHg 82%
    04:00 +9°C° 0 mm 3 mps 724 mmHg 83%
    05:00 +10°C° 0 mm 4 mps 724 mmHg 80%
    06:00 +11°C° 0 mm 4 mps 724 mmHg 77%
    07:00 +12°C° 0 mm 4 mps 723 mmHg 74%
    08:00 +13°C° 0 mm 5 mps 723 mmHg 69%
    09:00 +15°C° 0 mm 5 mps 723 mmHg 63%
    10:00 +17°C° 0 mm 6 mps 724 mmHg 58%
    11:00 +17°C° 0 mm 6 mps 723 mmHg 58%
    12:00 +17°C° 0 mm 6 mps 723 mmHg 58%
    13:00 +17°C° 0 mm 7 mps 723 mmHg 58%
    14:00 +17°C° 0 mm 6 mps 723 mmHg 59%
    15:00 +17°C° 0 mm 6 mps 723 mmHg 60%
    16:00 +17°C° 0 mm 6 mps 723 mmHg 60%
    17:00 +16°C° 0 mm 5 mps 723 mmHg 66%
    18:00 +14°C° 0 mm 4 mps 723 mmHg 71%
    19:00 +13°C° 0 mm 3 mps 723 mmHg 76%
    20:00 +12°C° 0 mm 3 mps 723 mmHg 80%
    21:00 +12°C° 0 mm 2 mps 724 mmHg 84%
    22:00 +10°C° 0 mm 2 mps 724 mmHg 88%
    23:00 +10°C° 0 mm 2 mps 724 mmHg 89%

    24 April, Wednesday

    Time Temperature Precipitation Wind Pressure Humidity
    00:00 +10°C° 0 mm 2 mps 724 mmHg 90%
    01:00 +9°C° 0 mm 2 mps 725 mmHg 90%
    02:00 +10°C° 0 mm 1 mps 725 mmHg 91%
    03:00 +10°C° 0 mm 1 mps 725 mmHg 91%
    04:00 +10°C° 0 mm 1 mps 726 mmHg 91%
    05:00 +11°C° 0 mm 1 mps 726 mmHg 87%
    06:00 +12°C° 0 mm 1 mps 726 mmHg 83%
    07:00 +13°C° 0 mm 1 mps 727 mmHg 79%
    08:00 +16°C° 0 mm 1 mps 727 mmHg 71%
    09:00 +19°C° 0 mm 1 mps 728 mmHg 64%
    10:00 +20°C° 0 mm 2 mps 728 mmHg 56%
    11:00 +23°C° 0 mm 2 mps 728 mmHg 52%
    12:00 +24°C° 0 mm 2 mps 728 mmHg 49%
    13:00 +25°C° 0 mm 2 mps 728 mmHg 45%
    14:00 +25°C° 0 mm 3 mps 728 mmHg 46%
    15:00 +25°C° 0 mm 3 mps 728 mmHg 46%
    16:00 +25°C° 0 mm 3 mps 727 mmHg 47%
    17:00 +22°C° 0 mm 3 mps 728 mmHg 54%
    18:00 +20°C° 0 mm 3 mps 728 mmHg 61%
    19:00 +18°C° 0 mm 3 mps 728 mmHg 68%
    20:00 +17°C° 0 mm 2 mps 728 mmHg 68%
    21:00 +16°C° 0 mm 2 mps 728 mmHg 69%
    22:00 +15°C° 0 mm 2 mps 728 mmHg 69%
    23:00 +14°C° 0 mm 2 mps 729 mmHg 70%

    25 April, Thursday

    Time Temperature Precipitation Wind Pressure Humidity
    00:00 +14°C° 0 mm 2 mps 730 mmHg 72%
    01:00 +13°C° 0 mm 1 mps 730 mmHg 73%
    02:00 +13°C° 0 mm 2 mps 731 mmHg 74%
    03:00 +12°C° 0 mm 3 mps 731 mmHg 75%
    04:00 +12°C° 0 mm 3 mps 732 mmHg 75%
    05:00 +13°C° 0 mm 2 mps 732 mmHg 74%
    06:00 +13°C° 0 mm 1 mps 732 mmHg 73%
    07:00 +13°C° 0 mm 0 mps 732 mmHg 72%
    08:00 +16°C° 0 mm 1 mps 732 mmHg 67%
    09:00 +17°C° 0 mm 2 mps 732 mmHg 61%
    10:00 +19°C° 0 mm 3 mps 732 mmHg 56%
    11:00 +21°C° 0 mm 3 mps 732 mmHg 53%
    12:00 +22°C° 0 mm 3 mps 731 mmHg 50%
    13:00 +25°C° 0 mm 4 mps 731 mmHg 47%
    14:00 +26°C° 0 mm 3 mps 730 mmHg 44%
    15:00 +26°C° 0 mm 3 mps 730 mmHg 42%
    16:00 +27°C° 0 mm 2 mps 729 mmHg 39%
    17:00 +25°C° 0 mm 2 mps 729 mmHg 46%
    18:00 +21°C° 0 mm 2 mps 729 mmHg 52%
    19:00 +19°C° 0 mm 2 mps 729 mmHg 59%
    20:00 +17°C° 0 mm 2 mps 729 mmHg 62%
    21:00 +16°C° 0 mm 2 mps 730 mmHg 65%
    22:00 +14°C° 0 mm 2 mps 730 mmHg 68%
    23:00 +14°C° 0 mm 1 mps 730 mmHg 71%

    26 April, Friday

    Time Temperature Precipitation Wind Pressure Humidity
    00:00 +13°C° 0 mm 1 mps 730 mmHg 74%
    01:00 +12°C° 0 mm 1 mps 730 mmHg 78%
    02:00 +12°C° 0 mm 1 mps 730 mmHg 78%
    03:00 +12°C° 0 mm 1 mps 730 mmHg 77%
    04:00 +12°C° 0 mm 1 mps 730 mmHg 77%
    05:00 +13°C° 0 mm 2 mps 730 mmHg 78%
    06:00 +13°C° 0 mm 2 mps 730 mmHg 79%
    07:00 +13°C° 0 mm 3 mps 731 mmHg 79%
    08:00 +14°C° 0 mm 3 mps 731 mmHg 75%
    09:00 +17°C° 0 mm 3 mps 731 mmHg 70%
    10:00 +18°C° 0 mm 3 mps 731 mmHg 66%
    11:00 +18°C° 0 mm 4 mps 731 mmHg 65%
    12:00 +19°C° 0 mm 4 mps 731 mmHg 64%
    13:00 +19°C° 0 mm 5 mps 731 mmHg 64%
    14:00 +15°C° 0.2 mm 6 mps 731 mmHg 69%
    15:00 +12°C° 0.2 mm 8 mps 732 mmHg 75%
    16:00 +8°C° 0.2 mm 9 mps 732 mmHg 81%
    17:00 +9°C° 0.7 mm 8 mps 733 mmHg 83%
    18:00 +8°C° 0.7 mm 7 mps 734 mmHg 86%
    19:00 +7°C° 0.7 mm 6 mps 735 mmHg 89%
    20:00 +7°C° 0.4 mm 6 mps 736 mmHg 89%
    21:00 +7°C° 0.4 mm 6 mps 736 mmHg 90%
    22:00 +7°C° 0.4 mm 5 mps 737 mmHg 90%
    23:00 +7°C° 0.2 mm 5 mps 737 mmHg 90%
    Show more